Time,TemperatureF,DewpointF,PressureIn,WindDirection,WindDirectionDegrees,WindSpeedMPH,WindSpeedGustMPH,Humidity,HourlyPrecipIn,Conditions,Clouds,dailyrainin,SolarRadiationWatts/m^2,SoftwareType,DateUTC
2013-10-31 00:03:00,41.0,35.0,-100.00,NE,37,1.0,6.0,78,0.00,,,-99.99,0.000000,,2013-10-31 08:03:00,
2013-10-31 00:12:00,41.0,35.0,-100.00,NE,37,1.0,6.0,78,0.00,,,-99.99,0.000000,,2013-10-31 08:12:00,
2013-10-31 00:22:00,41.0,35.0,-100.00,NE,37,1.0,6.0,78,0.00,,,-99.99,0.000000,,2013-10-31 08:22:00,
2013-10-31 00:52:00,40.0,35.0,-100.00,North,2,1.0,2.0,81,0.00,,,-99.99,0.000000,,2013-10-31 08:52:00,
2013-10-31 01:01:00,40.0,35.0,-100.00,North,2,1.0,2.0,81,0.00,,,-99.99,0.000000,,2013-10-31 09:01:00,
2013-10-31 01:11:00,40.0,35.0,-100.00,North,2,1.0,2.0,81,0.00,,,-99.99,0.000000,,2013-10-31 09:11:00,
2013-10-31 01:21:00,40.0,35.0,-100.00,North,2,1.0,2.0,81,0.00,,,-99.99,0.000000,,2013-10-31 09:21:00,
2013-10-31 01:53:00,39.0,34.0,-100.00,NE,52,0.0,4.0,83,0.00,,,0.00,0.000000,,2013-10-31 09:53:00,
2013-10-31 02:03:00,39.0,34.0,-100.00,NE,52,0.0,4.0,83,0.00,,,0.00,0.000000,,2013-10-31 10:03:00,
2013-10-31 02:13:00,39.0,34.0,-100.00,NE,52,0.0,4.0,83,0.00,,,0.00,0.000000,,2013-10-31 10:13:00,
2013-10-31 02:23:00,39.0,34.0,-100.00,NE,52,0.0,4.0,83,0.00,,,0.00,0.000000,,2013-10-31 10:23:00,
2013-10-31 02:53:00,38.0,34.0,-100.00,NE,36,0.0,3.0,87,0.00,,,0.00,0.000000,,2013-10-31 10:53:00,
2013-10-31 03:03:00,38.0,34.0,-100.00,NE,36,0.0,3.0,87,0.00,,,0.00,0.000000,,2013-10-31 11:03:00,
2013-10-31 03:12:00,38.0,34.0,-100.00,NE,36,0.0,3.0,87,0.00,,,0.00,0.000000,,2013-10-31 11:12:00,
2013-10-31 03:21:00,38.0,34.0,-100.00,NE,36,0.0,3.0,87,0.00,,,0.00,0.000000,,2013-10-31 11:21:00,
2013-10-31 03:52:00,38.0,35.0,-100.00,NNE,31,0.0,1.0,88,0.00,,,0.00,0.000000,,2013-10-31 11:52:00,
2013-10-31 04:01:00,38.0,35.0,-100.00,NNE,31,0.0,1.0,88,0.00,,,0.00,0.000000,,2013-10-31 12:01:00,
2013-10-31 04:12:00,38.0,35.0,-100.00,NNE,31,0.0,1.0,88,0.00,,,0.00,0.000000,,2013-10-31 12:12:00,
2013-10-31 04:21:00,38.0,35.0,-100.00,NNE,31,0.0,1.0,88,0.00,,,0.00,0.000000,,2013-10-31 12:21:00,
2013-10-31 04:52:00,37.0,35.0,-100.00,WSW,257,0.0,0.0,93,0.00,,,0.00,0.000000,,2013-10-31 12:52:00,
2013-10-31 05:01:00,37.0,35.0,-100.00,WSW,257,0.0,0.0,93,0.00,,,0.00,0.000000,,2013-10-31 13:01:00,
2013-10-31 05:11:00,37.0,35.0,-100.00,WSW,257,0.0,0.0,93,0.00,,,0.00,0.000000,,2013-10-31 13:11:00,
2013-10-31 05:22:00,37.0,35.0,-100.00,WSW,257,0.0,0.0,93,0.00,,,0.00,0.000000,,2013-10-31 13:22:00,
2013-10-31 05:52:00,36.0,34.0,-100.00,South,169,1.0,2.0,94,0.00,,,-99.99,0.000000,,2013-10-31 13:52:00,
2013-10-31 06:02:00,36.0,34.0,-100.00,South,169,1.0,2.0,94,0.00,,,-99.99,0.000000,,2013-10-31 14:02:00,
2013-10-31 06:11:00,36.0,34.0,-100.00,South,169,1.0,2.0,94,0.00,,,-99.99,0.000000,,2013-10-31 14:11:00,
2013-10-31 06:21:00,36.0,34.0,-100.00,South,169,1.0,2.0,94,0.00,,,-99.99,0.000000,,2013-10-31 14:21:00,
2013-10-31 06:52:00,37.0,36.0,-100.00,South,189,0.0,3.0,95,0.00,,,0.00,0.000000,,2013-10-31 14:52:00,
2013-10-31 07:01:00,37.0,36.0,-100.00,South,189,0.0,3.0,95,0.00,,,0.00,0.000000,,2013-10-31 15:01:00,
2013-10-31 07:11:00,37.0,36.0,-100.00,South,189,0.0,3.0,95,0.00,,,0.00,0.000000,,2013-10-31 15:11:00,
2013-10-31 07:22:00,37.0,36.0,-100.00,South,189,0.0,3.0,95,0.00,,,0.00,0.000000,,2013-10-31 15:22:00,
2013-10-31 08:12:00,37.0,36.0,-100.00,SSE,157,0.0,1.0,95,-99.99,,,-99.99,0.000000,,2013-10-31 16:12:00,
2013-10-31 08:22:00,37.0,36.0,-100.00,SSE,157,0.0,1.0,95,-99.99,,,-99.99,0.000000,,2013-10-31 16:22:00,
2013-10-31 08:53:00,37.0,36.0,-100.00,SSE,161,0.0,1.0,96,0.00,,,-99.99,0.000000,,2013-10-31 16:53:00,
2013-10-31 09:03:00,37.0,36.0,-100.00,SSE,161,0.0,1.0,96,0.00,,,-99.99,0.000000,,2013-10-31 17:03:00,
2013-10-31 09:12:00,37.0,36.0,-100.00,SSE,161,0.0,1.0,96,0.00,,,-99.99,0.000000,,2013-10-31 17:12:00,
2013-10-31 09:22:00,37.0,36.0,-100.00,SSE,161,0.0,1.0,96,0.00,,,-99.99,0.000000,,2013-10-31 17:22:00,
2013-10-31 09:52:00,37.0,36.0,-100.00,NE,36,0.0,2.0,96,0.00,,,-99.99,0.000000,,2013-10-31 17:52:00,
2013-10-31 10:02:00,37.0,36.0,-100.00,NE,36,0.0,2.0,96,0.00,,,-99.99,0.000000,,2013-10-31 18:02:00,
2013-10-31 10:12:00,37.0,36.0,-100.00,NE,36,0.0,2.0,96,0.00,,,-99.99,0.000000,,2013-10-31 18:12:00,
2013-10-31 10:21:00,37.0,36.0,-100.00,NE,36,0.0,2.0,96,0.00,,,-99.99,0.000000,,2013-10-31 18:21:00,
2013-10-31 10:52:00,38.0,37.0,-100.00,West,271,0.0,0.0,96,0.00,,,-99.99,21.000000,,2013-10-31 18:52:00,
2013-10-31 11:01:00,38.0,37.0,-100.00,West,271,0.0,0.0,96,0.00,,,-99.99,21.000000,,2013-10-31 19:01:00,
2013-10-31 11:11:00,38.0,37.0,-100.00,West,271,0.0,0.0,96,0.00,,,-99.99,21.000000,,2013-10-31 19:11:00,
2013-10-31 11:21:00,38.0,37.0,-100.00,West,271,0.0,0.0,96,0.00,,,-99.99,21.000000,,2013-10-31 19:21:00,
2013-10-31 11:52:00,41.0,40.0,-100.00,SSW,198,1.0,3.0,96,0.00,,,-99.99,59.000000,,2013-10-31 19:52:00,
2013-10-31 12:02:00,41.0,40.0,-100.00,SSW,198,1.0,3.0,96,0.00,,,-99.99,59.000000,,2013-10-31 20:02:00,
2013-10-31 12:11:00,41.0,40.0,-100.00,SSW,198,1.0,3.0,96,0.00,,,-99.99,59.000000,,2013-10-31 20:11:00,
2013-10-31 12:21:00,41.0,40.0,-100.00,SSW,198,1.0,3.0,96,0.00,,,-99.99,59.000000,,2013-10-31 20:21:00,
2013-10-31 12:52:00,42.0,40.0,-100.00,SSW,206,3.0,5.0,92,0.00,,,-99.99,77.000000,,2013-10-31 20:52:00,
2013-10-31 13:02:00,42.0,40.0,-100.00,SSW,206,3.0,5.0,92,0.00,,,-99.99,77.000000,,2013-10-31 21:02:00,
2013-10-31 13:11:00,42.0,40.0,-100.00,SSW,206,3.0,5.0,92,0.00,,,-99.99,77.000000,,2013-10-31 21:11:00,
2013-10-31 13:21:00,42.0,40.0,-100.00,SSW,206,3.0,5.0,92,0.00,,,-99.99,77.000000,,2013-10-31 21:21:00,
2013-10-31 13:54:00,43.0,40.0,-100.00,SSW,210,3.0,5.0,89,0.00,,,-99.99,82.000000,,2013-10-31 21:54:00,
2013-10-31 14:03:00,43.0,40.0,-100.00,SSW,210,3.0,5.0,89,0.00,,,-99.99,82.000000,,2013-10-31 22:03:00,
2013-10-31 14:13:00,43.0,40.0,-100.00,SSW,210,3.0,5.0,89,0.00,,,-99.99,82.000000,,2013-10-31 22:13:00,
2013-10-31 14:24:00,43.0,40.0,-100.00,SSW,210,3.0,5.0,89,0.00,,,-99.99,82.000000,,2013-10-31 22:24:00,
2013-10-31 14:53:00,46.0,41.0,-100.00,SSW,211,5.0,8.0,83,0.00,,,-99.99,176.000000,,2013-10-31 22:53:00,
2013-10-31 15:03:00,46.0,41.0,-100.00,SSW,211,5.0,8.0,83,0.00,,,-99.99,176.000000,,2013-10-31 23:03:00,
2013-10-31 15:12:00,46.0,41.0,-100.00,SSW,211,5.0,8.0,83,0.00,,,-99.99,176.000000,,2013-10-31 23:12:00,
2013-10-31 15:22:00,46.0,41.0,-100.00,SSW,211,5.0,8.0,83,0.00,,,-99.99,176.000000,,2013-10-31 23:22:00,
2013-10-31 15:54:00,45.0,40.0,-100.00,SSW,212,4.0,7.0,84,0.00,,,-99.99,120.000000,,2013-10-31 23:54:00,
2013-10-31 16:01:00,45.0,40.0,-100.00,SSW,212,4.0,7.0,84,0.00,,,-99.99,120.000000,,2013-11-01 00:01:00,
2013-10-31 16:11:00,45.0,40.0,-100.00,SSW,212,4.0,7.0,84,0.00,,,-99.99,120.000000,,2013-11-01 00:11:00,
2013-10-31 16:21:00,45.0,40.0,-100.00,SSW,212,4.0,7.0,84,0.00,,,-99.99,120.000000,,2013-11-01 00:21:00,
2013-10-31 16:52:00,44.0,41.0,-100.00,SSW,211,4.0,7.0,88,0.00,,,-99.99,69.000000,,2013-11-01 00:52:00,
2013-10-31 17:01:00,44.0,41.0,-100.00,SSW,211,4.0,7.0,88,0.00,,,-99.99,69.000000,,2013-11-01 01:01:00,
2013-10-31 17:12:00,44.0,41.0,-100.00,SSW,211,4.0,7.0,88,0.00,,,-99.99,69.000000,,2013-11-01 01:12:00,
2013-10-31 17:22:00,44.0,41.0,-100.00,SSW,211,4.0,7.0,88,0.00,,,-99.99,69.000000,,2013-11-01 01:22:00,
2013-10-31 17:52:00,43.0,40.0,-100.00,SSW,207,3.0,6.0,90,0.00,,,-99.99,18.000000,,2013-11-01 01:52:00,
2013-10-31 18:02:00,43.0,40.0,-100.00,SSW,207,3.0,6.0,90,0.00,,,-99.99,18.000000,,2013-11-01 02:02:00,
2013-10-31 18:11:00,43.0,40.0,-100.00,SSW,207,3.0,6.0,90,0.00,,,-99.99,18.000000,,2013-11-01 02:11:00,
2013-10-31 18:21:00,43.0,40.0,-100.00,SSW,207,3.0,6.0,90,0.00,,,-99.99,18.000000,,2013-11-01 02:21:00,
2013-10-31 18:52:00,42.0,40.0,-100.00,SSW,204,1.0,5.0,91,0.00,,,-99.99,6.000000,,2013-11-01 02:52:00,
2013-10-31 19:03:00,42.0,40.0,-100.00,SSW,204,1.0,5.0,91,0.00,,,-99.99,6.000000,,2013-11-01 03:03:00,
2013-10-31 19:11:00,42.0,40.0,-100.00,SSW,204,1.0,5.0,91,0.00,,,-99.99,6.000000,,2013-11-01 03:11:00,
2013-10-31 19:21:00,42.0,40.0,-100.00,SSW,204,1.0,5.0,91,0.00,,,-99.99,6.000000,,2013-11-01 03:21:00,
2013-10-31 19:54:00,41.0,39.0,-100.00,South,174,2.0,6.0,94,0.00,,,-99.99,0.000000,,2013-11-01 03:54:00,
2013-10-31 20:03:00,41.0,39.0,-100.00,South,174,2.0,6.0,94,0.00,,,-99.99,0.000000,,2013-11-01 04:03:00,
2013-10-31 20:13:00,41.0,39.0,-100.00,South,174,2.0,6.0,94,0.00,,,-99.99,0.000000,,2013-11-01 04:13:00,
2013-10-31 20:24:00,41.0,39.0,-100.00,South,174,2.0,6.0,94,0.00,,,-99.99,0.000000,,2013-11-01 04:24:00,
2013-10-31 20:54:00,41.0,40.0,-100.00,WSW,249,0.0,3.0,95,0.00,,,-99.99,0.000000,,2013-11-01 04:54:00,
2013-10-31 21:03:00,41.0,40.0,-100.00,WSW,249,0.0,3.0,95,0.00,,,-99.99,0.000000,,2013-11-01 05:03:00,
2013-10-31 21:12:00,41.0,40.0,-100.00,WSW,249,0.0,3.0,95,0.00,,,-99.99,0.000000,,2013-11-01 05:12:00,
2013-10-31 21:23:00,41.0,40.0,-100.00,WSW,249,0.0,3.0,95,0.00,,,-99.99,0.000000,,2013-11-01 05:23:00,
2013-10-31 21:53:00,40.0,39.0,-100.00,SW,215,0.0,2.0,96,0.01,,,-99.99,0.000000,,2013-11-01 05:53:00,
2013-10-31 22:02:00,40.0,39.0,-100.00,SW,215,0.0,2.0,96,0.01,,,-99.99,0.000000,,2013-11-01 06:02:00,
2013-10-31 22:12:00,40.0,39.0,-100.00,SW,215,0.0,2.0,96,0.01,,,-99.99,0.000000,,2013-11-01 06:12:00,
2013-10-31 22:21:00,40.0,39.0,-100.00,SW,215,0.0,2.0,96,0.01,,,-99.99,0.000000,,2013-11-01 06:21:00,
2013-10-31 22:52:00,41.0,40.0,-100.00,SSE,155,1.0,5.0,97,0.01,,,-99.99,0.000000,,2013-11-01 06:52:00,
2013-10-31 23:02:00,41.0,40.0,-100.00,SSE,155,1.0,5.0,97,0.01,,,-99.99,0.000000,,2013-11-01 07:02:00,
2013-10-31 23:12:00,41.0,40.0,-100.00,SSE,155,1.0,5.0,97,0.01,,,-99.99,0.000000,,2013-11-01 07:12:00,
2013-10-31 23:21:00,41.0,40.0,-100.00,SSE,155,1.0,5.0,97,0.01,,,-99.99,0.000000,,2013-11-01 07:21:00,
2013-10-31 23:52:00,40.0,39.0,-100.00,SSE,166,1.0,3.0,96,0.00,,,-99.99,0.000000,,2013-11-01 07:52:00,